Simultaneous Nadir Overpasses (SNOs) Predictions

Prediction of SNOs between METOP-B and NOAA-19 Satellite Orbit:

Table of predicted SNOs for the next 14.0 days since TLE Epoch: 3/25/2016
Index Date (METOP-B) Time (METOP-B) Lat,Lon (METOP-B) SZA (METOP-B ) Date (NOAA-19) Time (NOAA-19) Lat,Lon (NOAA-19) SZA (NOAA-19 ) Distance(km) Time Diff (sec)
1 04/01/2016 23:13:40 -75.89, 11.23 109.18 04/01/2016 23:12:29 -75.90, 11.27 109.17 1.29 71
2 04/02/2016 00:04:20 75.87, 178.50 70.79 04/02/2016 00:03:30 75.89, 178.56 70.81 2.44 50
3 04/02/2016 00:55:02 -75.88, -14.17 109.23 04/02/2016 00:54:31 -75.89, -14.21 109.21 2.26 31
4 04/02/2016 01:45:42 75.86, 153.10 70.74 04/02/2016 01:45:32 75.88, 153.07 70.77 3.34 10
5 04/02/2016 02:36:24 -75.86, -39.57 109.27 04/02/2016 02:36:32 -75.84, -39.53 109.29 2.05 8
6
